OneWeb SL0137

operational
NORAD ID: 47274 Int'l Des: 2020-100 Owner: ONEWEB Country: UK Constellation: oneweb
LEOCIRCULARPOLARONEWEB_TYPE

Über OneWeb SL0137

Beschreibung wird geladen...

Live-Position

3D-Globus wird geladen...

Nächste Überflüge

Höhenverlauf

Altitude vs Time

uPlot chart will show altitude changes over time

Zweizeiliger Elementsatz

1 47274U 20100S 25258.65340689 -.00000049 00000-0 -17155-3 0 9997
2 47274 87.8899 45.2479 0001451 97.9325 262.1968 13.12442756228733
Epoch: 15. Sept. 2025 • Age: 17 hours

Aktueller Status

Höhe 1216.0 km
Geschwindigkeit 7.25 km/s
Subsatellitenpunkt 21.08°N, 73.45°W
Startdatum 18. Dez. 2020
Alter 4.7 years
Typ internet

Technische Details

Klassifizierung Payload
Masse 148.00 kg
Trockenmasse 140.00 kg
Gesamtmasse 148.00 kg
Länge 1.30 m
Durchmesser 1.00 m
Spannweite 5.00 m
Form Trapezoid+2 pan
Hersteller ONEWUS
Bus-Typ ARROW
Phasenstatus In Orbit
Besitzer/Staat ONEWEB/UK

Große Konstellationen

Loading constellations...